| time (UTC) | temp F | wind direction | speed MPH | gust MPH | rain 1hr in | rain 24hr in | rain mn in | humidity % | barometer mb |
| 20260509003426 | 43 | 222 | 0.0 | 0.0 | 0.00 | 0.00 | 0.00 | 77 | 1009.0 |
| 20260509002923 | 43 | 224 | 0.0 | 0.0 | 0.00 | 0.00 | 0.00 | 76 | 1009.0 |
| 20260509002421 | 43 | 224 | 0.0 | 0.0 | 0.00 | 0.00 | 0.00 | 77 | 1008.9 |
| 20260509001918 | 43 | 224 | 0.0 | 0.0 | 0.00 | 0.00 | 0.00 | 78 | 1008.8 |
| 20260509001414 | 43 | 224 | 0.0 | 0.0 | 0.00 | 0.00 | 0.00 | 74 | 1008.9 |
| 20260509000911 | 43 | 224 | 0.0 | 0.0 | 0.00 | 0.00 | 0.00 | 74 | 1008.7 |
| 20260509000410 | 43 | 224 | 0.0 | 0.0 | 0.00 | 0.00 | 0.00 | 72 | 1008.8 |
| 20260508235904 | 44 | 224 | 0.0 | 0.0 | 0.00 | 0.00 | 0.00 | 71 | 1008.7 |
| 20260508235402 | 44 | 224 | 0.0 | 0.0 | 0.00 | 0.00 | 0.00 | 70 | 1008.7 |
| 20260508234859 | 44 | 224 | 0.0 | 0.0 | 0.00 | 0.00 | 0.00 | 70 | 1008.6 |
| 20260508234355 | 44 | 224 | 0.0 | 0.0 | 0.00 | 0.00 | 0.00 | 74 | 1008.3 |
| 20260508233854 | 45 | 224 | 0.0 | 0.0 | 0.00 | 0.00 | 0.00 | 73 | 1008.2 |
| 20260508233353 | 45 | 224 | 0.0 | 0.0 | 0.00 | 0.00 | 0.00 | 70 | 1008.0 |
| 20260508232849 | 46 | 224 | 0.0 | 0.0 | 0.00 | 0.00 | 0.00 | 69 | 1008.3 |
| 20260508232345 | 46 | 224 | 0.0 | 0.0 | 0.00 | 0.00 | 0.00 | 68 | 1008.1 |
| 20260508231844 | 47 | 224 | 0.0 | 0.0 | 0.00 | 0.00 | 0.00 | 66 | 1008.2 |
| 20260508231340 | 47 | 224 | 0.0 | 0.0 | 0.00 | 0.00 | 0.00 | 65 | 1008.1 |
| 20260508230837 | 48 | 224 | 0.0 | 0.0 | 0.00 | 0.00 | 0.00 | 65 | 1008.4 |
| 20260508230333 | 48 | 224 | 0.0 | 0.0 | 0.00 | 0.00 | 0.00 | 66 | 1008.4 |
| 20260508225832 | 48 | 224 | 0.0 | 0.0 | 0.00 | 0.00 | 0.00 | 62 | 1008.1 |
| 20260508225328 | 48 | 224 | 0.0 | 0.0 | 0.00 | 0.00 | 0.00 | 60 | 1008.4 |
| 20260508224826 | 48 | 209 | 0.0 | 0.0 | 0.00 | 0.00 | 0.00 | 57 | 1008.0 |
| 20260508224323 | 49 | 222 | 0.0 | 0.0 | 0.00 | 0.00 | 0.00 | 58 | 1008.3 |
| 20260508223820 | 49 | 224 | 0.0 | 2.0 | 0.00 | 0.00 | 0.00 | 55 | 1008.1 |
| 20260508223318 | 49 | 210 | 0.0 | 1.0 | 0.00 | 0.00 | 0.00 | 52 | 1007.9 |
| 20260508222815 | 49 | 248 | 0.0 | 4.0 | 0.00 | 0.00 | 0.00 | 54 | 1008.1 |
| 20260508222312 | 49 | 259 | 0.0 | 0.0 | 0.00 | 0.00 | 0.00 | 57 | 1008.1 |
| 20260508221809 | 49 | 224 | 0.0 | 0.0 | 0.00 | 0.00 | 0.00 | 56 | 1008.1 |
| 20260508221304 | 49 | 226 | 0.0 | 0.0 | 0.00 | 0.00 | 0.00 | 54 | 1008.1 |
| 20260508220801 | 50 | 266 | 1.0 | 1.0 | 0.00 | 0.00 | 0.00 | 53 | 1008.1 |
| 20260508220257 | 50 | 232 | 1.0 | 1.0 | 0.00 | 0.00 | 0.00 | 51 | 1008.0 |
| 20260508215754 | 51 | 248 | 1.0 | 6.0 | 0.00 | 0.00 | 0.00 | 51 | 1007.8 |
| 20260508215250 | 50 | 332 | 1.0 | 2.0 | 0.00 | 0.00 | 0.00 | 52 | 1008.1 |
| 20260508214748 | 50 | 252 | 0.0 | 2.0 | 0.00 | 0.00 | 0.00 | 52 | 1008.0 |
| 20260508214245 | 50 | 290 | 2.0 | 2.0 | 0.00 | 0.00 | 0.00 | 52 | 1008.2 |
| 20260508213741 | 50 | 220 | 1.0 | 2.0 | 0.00 | 0.00 | 0.00 | 52 | 1008.4 |
| 20260508213238 | 50 | 296 | 0.0 | 1.0 | 0.00 | 0.00 | 0.00 | 54 | 1008.2 |
| 20260508212735 | 50 | 220 | 0.0 | 0.0 | 0.00 | 0.00 | 0.00 | 52 | 1008.0 |
| 20260508212231 | 51 | 248 | 2.0 | 3.0 | 0.00 | 0.00 | 0.00 | 51 | 1008.1 |
| 20260508211727 | 51 | 213 | 0.0 | 2.0 | 0.00 | 0.00 | 0.00 | 51 | 1008.2 |
| 20260508211223 | 51 | 132 | 1.0 | 3.0 | 0.00 | 0.00 | 0.00 | 50 | 1008.1 |
| 20260508210720 | 51 | 313 | 0.0 | 4.0 | 0.00 | 0.00 | 0.00 | 52 | 1008.0 |
| 20260508210217 | 50 | 215 | 0.0 | 4.0 | 0.00 | 0.00 | 0.00 | 53 | 1008.0 |
| 20260508205714 | 50 | 233 | 1.0 | 4.0 | 0.00 | 0.00 | 0.00 | 53 | 1008.0 |
| 20260508205210 | 50 | 224 | 1.0 | 2.0 | 0.00 | 0.00 | 0.00 | 53 | 1008.2 |
| 20260508204707 | 50 | 237 | 0.0 | 0.0 | 0.00 | 0.00 | 0.00 | 53 | 1008.1 |
| 20260508204203 | 50 | 220 | 0.0 | 3.0 | 0.00 | 0.00 | 0.00 | 55 | 1008.0 |
| 20260508203659 | 50 | 239 | 2.0 | 2.0 | 0.00 | 0.00 | 0.00 | 53 | 1008.2 |
| 20260508203156 | 50 | 97 | 0.0 | 3.0 | 0.00 | 0.00 | 0.00 | 52 | 1008.3 |
| 20260508202652 | 51 | 285 | 2.0 | 3.0 | 0.00 | 0.00 | 0.00 | 52 | 1008.4 |
| 20260508202149 | 51 | 250 | 2.0 | 3.0 | 0.00 | 0.00 | 0.00 | 57 | 1008.2 |
| 20260508201646 | 51 | 274 | 1.0 | 3.0 | 0.00 | 0.00 | 0.00 | 53 | 1008.3 |
| 20260508201142 | 51 | 253 | 0.0 | 4.0 | 0.00 | 0.00 | 0.00 | 53 | 1008.4 |
| 20260508200639 | 50 | 343 | 2.0 | 3.0 | 0.00 | 0.00 | 0.00 | 53 | 1008.3 |
| 20260508200135 | 51 | 281 | 3.0 | 3.0 | 0.00 | 0.00 | 0.00 | 53 | 1008.4 |
| 20260508195632 | 50 | 223 | 1.0 | 6.0 | 0.00 | 0.00 | 0.00 | 54 | 1008.6 |
| 20260508195128 | 50 | 287 | 2.0 | 6.0 | 0.00 | 0.00 | 0.00 | 53 | 1008.7 |
| 20260508194625 | 49 | 323 | 1.0 | 6.0 | 0.00 | 0.00 | 0.00 | 58 | 1008.7 |
| 20260508194122 | 48 | 228 | 1.0 | 2.0 | 0.00 | 0.00 | 0.00 | 57 | 1008.7 |
| 20260508193619 | 49 | 291 | 1.0 | 6.0 | 0.00 | 0.00 | 0.00 | 57 | 1008.4 |
| 20260508193116 | 49 | 284 | 1.0 | 7.0 | 0.00 | 0.00 | 0.00 | 57 | 1008.9 |
| 20260508192612 | 50 | 234 | 1.0 | 3.0 | 0.00 | 0.00 | 0.00 | 55 | 1008.7 |
| 20260508192110 | 51 | 334 | 2.0 | 3.0 | 0.00 | 0.00 | 0.00 | 56 | 1008.4 |
| 20260508191606 | 50 | 305 | 2.0 | 4.0 | 0.00 | 0.00 | 0.00 | 60 | 1008.7 |
| 20260508191103 | 50 | 54 | 1.0 | 8.0 | 0.00 | 0.00 | 0.00 | 59 | 1008.8 |
| 20260508190600 | 49 | 216 | 2.0 | 2.0 | 0.00 | 0.00 | 0.00 | 58 | 1008.8 |
| 20260508190056 | 49 | 223 | 0.0 | 6.0 | 0.00 | 0.00 | 0.00 | 60 | 1009.0 |
| 20260508185554 | 50 | 281 | 2.0 | 3.0 | 0.00 | 0.00 | 0.00 | 58 | 1009.0 |
| 20260508185052 | 50 | 271 | 1.0 | 2.0 | 0.00 | 0.00 | 0.00 | 60 | 1008.9 |
| 20260508184549 | 49 | 214 | 2.0 | 6.0 | 0.00 | 0.00 | 0.00 | 60 | 1009.1 |
| 20260508184045 | 49 | 189 | 1.0 | 2.0 | 0.00 | 0.00 | 0.00 | 62 | 1008.9 |
| 20260508183542 | 48 | 248 | 1.0 | 4.0 | 0.00 | 0.00 | 0.00 | 64 | 1008.9 |
| 20260508183038 | 48 | 343 | 1.0 | 8.0 | 0.00 | 0.00 | 0.00 | 62 | 1009.1 |
| 20260508182534 | 49 | 240 | 2.0 | 4.0 | 0.00 | 0.00 | 0.00 | 63 | 1008.9 |
| 20260508182031 | 49 | 83 | 2.0 | 3.0 | 0.00 | 0.00 | 0.00 | 63 | 1009.0 |
| 20260508181526 | 48 | 274 | 2.0 | 3.0 | 0.00 | 0.00 | 0.00 | 63 | 1009.1 |
| 20260508181024 | 47 | 40 | 4.0 | 7.0 | 0.00 | 0.00 | 0.00 | 67 | 1009.0 |
| 20260508180521 | 47 | 295 | 2.0 | 4.0 | 0.00 | 0.00 | 0.00 | 67 | 1009.1 |
| 20260508180017 | 48 | 221 | 0.0 | 3.0 | 0.00 | 0.00 | 0.00 | 65 | 1008.9 |
| 20260508175514 | 48 | 293 | 3.0 | 7.0 | 0.00 | 0.00 | 0.00 | 65 | 1008.7 |
| 20260508175011 | 47 | 242 | 0.0 | 0.0 | 0.00 | 0.00 | 0.00 | 66 | 1008.6 |
| 20260508174508 | 48 | 256 | 1.0 | 3.0 | 0.00 | 0.00 | 0.00 | 68 | 1008.7 |
| 20260508174005 | 49 | 303 | 1.0 | 6.0 | 0.00 | 0.00 | 0.00 | 65 | 1008.4 |
| 20260508173502 | 47 | 270 | 1.0 | 3.0 | 0.00 | 0.00 | 0.00 | 70 | 1008.6 |
| 20260508172958 | 47 | 279 | 1.0 | 7.0 | 0.00 | 0.00 | 0.00 | 68 | 1008.8 |
| 20260508172455 | 47 | 221 | 0.0 | 4.0 | 0.00 | 0.00 | 0.00 | 70 | 1008.7 |
| 20260508171952 | 46 | 213 | 0.0 | 1.0 | 0.00 | 0.00 | 0.00 | 72 | 1008.9 |
| 20260508171449 | 46 | 251 | 0.0 | 3.0 | 0.00 | 0.00 | 0.00 | 71 | 1009.0 |
| 20260508170945 | 46 | 265 | 1.0 | 4.0 | 0.00 | 0.00 | 0.00 | 73 | 1008.8 |
| 20260508170442 | 46 | 238 | 0.0 | 2.0 | 0.00 | 0.00 | 0.00 | 70 | 1008.8 |
| 20260508165939 | 46 | 244 | 0.0 | 2.0 | 0.00 | 0.00 | 0.00 | 71 | 1008.8 |
| 20260508165437 | 47 | 214 | 1.0 | 4.0 | 0.00 | 0.00 | 0.00 | 70 | 1008.9 |
| 20260508164933 | 48 | 309 | 2.0 | 3.0 | 0.00 | 0.00 | 0.00 | 71 | 1008.8 |
| 20260508164430 | 47 | 172 | 1.0 | 4.0 | 0.00 | 0.00 | 0.00 | 73 | 1008.7 |
| 20260508163927 | 46 | 215 | 3.0 | 4.0 | 0.00 | 0.00 | 0.00 | 72 | 1009.0 |
| 20260508163425 | 47 | 263 | 2.0 | 4.0 | 0.00 | 0.00 | 0.00 | 70 | 1008.7 |
| 20260508162920 | 47 | 296 | 1.0 | 8.0 | 0.00 | 0.00 | 0.00 | 68 | 1008.7 |
| 20260508162418 | 47 | 67 | 1.0 | 3.0 | 0.00 | 0.00 | 0.00 | 74 | 1008.8 |
| 20260508161914 | 48 | 242 | 1.0 | 2.0 | 0.00 | 0.00 | 0.00 | 68 | 1008.2 |
| 20260508161412 | 46 | 15 | 1.0 | 4.0 | 0.00 | 0.00 | 0.00 | 72 | 1008.4 |
| 20260508160909 | 46 | 234 | 0.0 | 0.0 | 0.00 | 0.00 | 0.00 | 74 | 1008.4 |
| 20260508160408 | 46 | 256 | 0.0 | 2.0 | 0.00 | 0.00 | 0.00 | 74 | 1008.7 |
| 20260508155903 | 45 | 268 | 0.0 | 4.0 | 0.00 | 0.00 | 0.00 | 74 | 1008.7 |
| 20260508155401 | 44 | 196 | 0.0 | 4.0 | 0.00 | 0.00 | 0.00 | 78 | 1008.6 |
| 20260508154857 | 44 | 168 | 2.0 | 2.0 | 0.00 | 0.00 | 0.00 | 75 | 1008.8 |
| 20260508154355 | 44 | 200 | 0.0 | 2.0 | 0.00 | 0.00 | 0.00 | 76 | 1008.7 |
| 20260508153852 | 43 | 36 | 2.0 | 2.0 | 0.00 | 0.00 | 0.00 | 76 | 1008.9 |
| 20260508153349 | 43 | 318 | 4.0 | 6.0 | 0.00 | 0.00 | 0.00 | 76 | 1008.8 |
| 20260508152844 | 43 | 272 | 1.0 | 3.0 | 0.00 | 0.00 | 0.00 | 76 | 1008.8 |
| 20260508152341 | 43 | 215 | 1.0 | 1.0 | 0.00 | 0.00 | 0.00 | 79 | 1009.1 |
| 20260508151838 | 42 | 233 | 0.0 | 2.0 | 0.00 | 0.00 | 0.00 | 80 | 1009.0 |
| 20260508151335 | 42 | 354 | 0.0 | 1.0 | 0.00 | 0.00 | 0.00 | 81 | 1008.9 |
| 20260508150831 | 42 | 242 | 1.0 | 1.0 | 0.00 | 0.00 | 0.00 | 80 | 1008.9 |
| 20260508150328 | 42 | 43 | 0.0 | 2.0 | 0.00 | 0.00 | 0.00 | 78 | 1009.0 |
| 20260508145824 | 42 | 347 | 1.0 | 2.0 | 0.00 | 0.00 | 0.00 | 79 | 1009.0 |
| 20260508145321 | 42 | 160 | 1.0 | 2.0 | 0.00 | 0.00 | 0.00 | 80 | 1008.9 |
| 20260508144817 | 43 | 206 | 0.0 | 1.0 | 0.00 | 0.00 | 0.00 | 80 | 1009.1 |
| 20260508144315 | 42 | 197 | 0.0 | 1.0 | 0.00 | 0.00 | 0.00 | 78 | 1008.9 |
| 20260508143813 | 42 | 148 | 1.0 | 1.0 | 0.00 | 0.00 | 0.00 | 80 | 1008.9 |
| 20260508143310 | 42 | 289 | 2.0 | 2.0 | 0.00 | 0.00 | 0.00 | 78 | 1009.2 |
| 20260508142806 | 42 | 238 | 0.0 | 2.0 | 0.00 | 0.00 | 0.00 | 79 | 1009.0 |
| 20260508142306 | 42 | 283 | 1.0 | 2.0 | 0.00 | 0.00 | 0.00 | 79 | 1009.0 |
| 20260508141759 | 42 | 183 | 0.0 | 1.0 | 0.00 | 0.00 | 0.00 | 77 | 1008.6 |
| 20260508141257 | 42 | 191 | 2.0 | 2.0 | 0.00 | 0.00 | 0.00 | 78 | 1008.6 |
| 20260508140754 | 43 | 243 | 0.0 | 3.0 | 0.00 | 0.00 | 0.00 | 76 | 1008.3 |
| 20260508140251 | 44 | 177 | 2.0 | 2.0 | 0.00 | 0.00 | 0.00 | 74 | 1008.4 |
| 20260508135747 | 44 | 197 | 0.0 | 1.0 | 0.00 | 0.00 | 0.00 | 74 | 1008.4 |
| 20260508135243 | 44 | 217 | 0.0 | 2.0 | 0.00 | 0.00 | 0.00 | 74 | 1008.3 |
| 20260508134738 | 43 | 237 | 1.0 | 1.0 | 0.00 | 0.00 | 0.00 | 78 | 1008.3 |
| 20260508134236 | 43 | 225 | 0.0 | 2.0 | 0.00 | 0.00 | 0.00 | 77 | 1008.3 |
| 20260508133732 | 43 | 35 | 0.0 | 1.0 | 0.00 | 0.00 | 0.00 | 75 | 1008.6 |
| 20260508133230 | 44 | 261 | 0.0 | 0.0 | 0.00 | 0.00 | 0.00 | 75 | 1008.3 |
| 20260508132728 | 45 | 265 | 1.0 | 3.0 | 0.00 | 0.00 | 0.00 | 71 | 1008.4 |
| 20260508132225 | 45 | 303 | 0.0 | 1.0 | 0.00 | 0.00 | 0.00 | 76 | 1008.4 |
| 20260508131721 | 45 | 226 | 1.0 | 1.0 | 0.00 | 0.00 | 0.00 | 73 | 1008.4 |
| 20260508131218 | 46 | 192 | 0.0 | 2.0 | 0.00 | 0.00 | 0.00 | 73 | 1008.4 |
| 20260508130714 | 46 | 188 | 2.0 | 2.0 | 0.00 | 0.00 | 0.00 | 72 | 1008.3 |
| 20260508130212 | 44 | 190 | 0.0 | 1.0 | 0.00 | 0.00 | 0.00 | 80 | 1008.4 |
| 20260508125707 | 44 | 356 | 1.0 | 2.0 | 0.00 | 0.00 | 0.00 | 78 | 1008.6 |
| 20260508125203 | 43 | 260 | 1.0 | 2.0 | 0.00 | 0.00 | 0.00 | 78 | 1008.3 |
| 20260508124702 | 44 | 141 | 0.0 | 1.0 | 0.00 | 0.00 | 0.00 | 82 | 1008.6 |
| 20260508124158 | 43 | 261 | 1.0 | 3.0 | 0.00 | 0.00 | 0.00 | 80 | 1008.6 |
| 20260508123657 | 42 | 233 | 0.0 | 1.0 | 0.00 | 0.00 | 0.00 | 83 | 1008.7 |
| 20260508123154 | 42 | 232 | 0.0 | 0.0 | 0.00 | 0.00 | 0.00 | 84 | 1008.8 |
| 20260508122650 | 42 | 239 | 0.0 | 2.0 | 0.00 | 0.00 | 0.00 | 84 | 1008.7 |
| 20260508122147 | 42 | 233 | 1.0 | 2.0 | 0.00 | 0.00 | 0.00 | 86 | 1008.4 |
| 20260508121645 | 40 | 62 | 0.0 | 1.0 | 0.00 | 0.00 | 0.00 | 87 | 1008.7 |
| 20260508121143 | 39 | 137 | 0.0 | 1.0 | 0.00 | 0.00 | 0.00 | 89 | 1008.8 |
| 20260508120640 | 39 | 339 | 1.0 | 2.0 | 0.00 | 0.00 | 0.00 | 90 | 1008.7 |
| 20260508120139 | 40 | 243 | 0.0 | 0.0 | 0.00 | 0.00 | 0.00 | 90 | 1008.9 |
| 20260508115636 | 40 | 227 | 0.0 | 1.0 | 0.00 | 0.00 | 0.00 | 91 | 1008.8 |
| 20260508115132 | 39 | 230 | 0.0 | 1.0 | 0.00 | 0.00 | 0.00 | 90 | 1008.7 |
| 20260508114629 | 40 | 248 | 0.0 | 4.0 | 0.00 | 0.00 | 0.00 | 90 | 1008.7 |
| 20260508114125 | 40 | 294 | 1.0 | 2.0 | 0.00 | 0.00 | 0.00 | 91 | 1008.9 |
| 20260508113623 | 40 | 84 | 0.0 | 1.0 | 0.00 | 0.00 | 0.00 | 91 | 1008.7 |
| 20260508113121 | 40 | 254 | 2.0 | 3.0 | 0.00 | 0.00 | 0.00 | 90 | 1008.6 |
| 20260508112617 | 40 | 196 | 0.0 | 0.0 | 0.00 | 0.00 | 0.00 | 91 | 1008.8 |
| 20260508112114 | 39 | 212 | 0.0 | 0.0 | 0.00 | 0.00 | 0.00 | 95 | 1008.6 |
| 20260508111611 | 38 | 232 | 0.0 | 0.0 | 0.00 | 0.00 | 0.00 | 96 | 1008.6 |
| 20260508111108 | 37 | 181 | 0.0 | 1.0 | 0.00 | 0.00 | 0.00 | 97 | 1008.6 |
| 20260508110606 | 37 | 231 | 0.0 | 0.0 | 0.00 | 0.00 | 0.00 | 98 | 1008.9 |
| 20260508105556 | 36 | 215 | 0.0 | 0.0 | 0.00 | 0.02 | 0.02 | 99 | 1008.7 |
| 20260508105054 | 36 | 213 | 0.0 | 0.0 | 0.00 | 0.02 | 0.02 | 99 | 1008.7 |
| 20260508104552 | 36 | 302 | 3.0 | 3.0 | 0.00 | 0.02 | 0.02 | 99 | 1008.4 |
| 20260508104048 | 36 | 218 | 0.0 | 0.0 | 0.00 | 0.02 | 0.02 | 99 | 1008.4 |
| 20260508103545 | 35 | 224 | 0.0 | 0.0 | 0.00 | 0.02 | 0.02 | 99 | 1008.3 |
| 20260508103042 | 35 | 228 | 0.0 | 0.0 | 0.00 | 0.02 | 0.02 | 99 | 1008.4 |
| 20260508102540 | 35 | 229 | 0.0 | 0.0 | 0.00 | 0.02 | 0.02 | 99 | 1008.6 |
| 20260508102038 | 34 | 238 | 0.0 | 0.0 | 0.00 | 0.02 | 0.02 | 99 | 1008.7 |
| 20260508101535 | 34 | 214 | 0.0 | 0.0 | 0.00 | 0.02 | 0.02 | 99 | 1008.7 |
| 20260508101032 | 34 | 228 | 0.0 | 0.0 | 0.00 | 0.02 | 0.02 | 99 | 1008.4 |
| 20260508100530 | 34 | 224 | 0.0 | 1.0 | 0.00 | 0.02 | 0.02 | 99 | 1008.6 |
| 20260508100027 | 35 | 222 | 0.0 | 0.0 | 0.00 | 0.02 | 0.02 | 99 | 1008.2 |
| 20260508095524 | 34 | 227 | 0.0 | 0.0 | 0.00 | 0.02 | 0.02 | 99 | 1008.4 |
| 20260508095020 | 34 | 233 | 0.0 | 0.0 | 0.00 | 0.02 | 0.02 | 99 | 1008.3 |
| 20260508094518 | 34 | 253 | 0.0 | 0.0 | 0.00 | 0.02 | 0.02 | 99 | 1008.4 |
| 20260508094014 | 34 | 239 | 0.0 | 0.0 | 0.00 | 0.02 | 0.02 | 99 | 1008.2 |
| 20260508093511 | 34 | 227 | 0.0 | 0.0 | 0.00 | 0.02 | 0.02 | 99 | 1008.2 |
| 20260508093009 | 34 | 226 | 0.0 | 0.0 | 0.00 | 0.02 | 0.02 | 99 | 1008.6 |
| 20260508092501 | 35 | 231 | 0.0 | 0.0 | 0.00 | 0.02 | 0.02 | 99 | 1008.3 |
| 20260508092000 | 34 | 229 | 0.0 | 0.0 | 0.00 | 0.02 | 0.02 | 99 | 1008.1 |
| 20260508091456 | 35 | 229 | 0.0 | 0.0 | 0.00 | 0.02 | 0.02 | 99 | 1008.2 |
| 20260508090953 | 35 | 228 | 0.0 | 0.0 | 0.00 | 0.02 | 0.02 | 99 | 1008.2 |
| 20260508090451 | 35 | 223 | 0.0 | 0.0 | 0.00 | 0.02 | 0.02 | 99 | 1008.3 |
| 20260508085947 | 35 | 241 | 0.0 | 1.0 | 0.00 | 0.02 | 0.02 | 99 | 1008.3 |
| 20260508085444 | 35 | 233 | 0.0 | 0.0 | 0.00 | 0.02 | 0.02 | 99 | 1008.2 |
| 20260508084940 | 35 | 219 | 0.0 | 0.0 | 0.00 | 0.02 | 0.02 | 99 | 1008.0 |
| 20260508084437 | 35 | 217 | 0.0 | 0.0 | 0.00 | 0.02 | 0.02 | 99 | 1008.1 |
| 20260508083935 | 35 | 228 | 0.0 | 0.0 | 0.00 | 0.02 | 0.02 | 99 | 1008.0 |
| 20260508083432 | 36 | 221 | 0.0 | 0.0 | 0.00 | 0.02 | 0.02 | 99 | 1008.1 |
| 20260508082932 | 36 | 176 | 0.0 | 0.0 | 0.00 | 0.02 | 0.02 | 99 | 1007.8 |
| 20260508082424 | 36 | 204 | 0.0 | 0.0 | 0.00 | 0.02 | 0.02 | 99 | 1007.9 |
| 20260508081922 | 37 | 145 | 1.0 | 1.0 | 0.00 | 0.02 | 0.02 | 99 | 1007.9 |
| 20260508081418 | 37 | 194 | 0.0 | 0.0 | 0.00 | 0.02 | 0.02 | 99 | 1008.0 |
| 20260508080914 | 37 | 211 | 0.0 | 1.0 | 0.00 | 0.02 | 0.02 | 99 | 1008.0 |
| 20260508080413 | 36 | 75 | 0.0 | 0.0 | 0.00 | 0.02 | 0.02 | 99 | 1008.0 |
| 20260508075908 | 36 | 215 | 0.0 | 0.0 | 0.00 | 0.02 | 0.02 | 99 | 1008.0 |
| 20260508075406 | 36 | 212 | 0.0 | 0.0 | 0.00 | 0.02 | 0.02 | 99 | 1008.0 |
| 20260508074904 | 36 | 218 | 0.0 | 0.0 | 0.00 | 0.02 | 0.02 | 99 | 1008.1 |
| 20260508074400 | 36 | 234 | 0.0 | 0.0 | 0.00 | 0.02 | 0.02 | 99 | 1008.2 |
| 20260508073857 | 36 | 216 | 0.0 | 0.0 | 0.00 | 0.02 | 0.02 | 99 | 1008.2 |
| 20260508073355 | 36 | 236 | 0.0 | 0.0 | 0.00 | 0.02 | 0.02 | 99 | 1008.0 |
| 20260508072851 | 36 | 236 | 0.0 | 0.0 | 0.00 | 0.02 | 0.02 | 99 | 1008.2 |
| 20260508072348 | 36 | 210 | 0.0 | 0.0 | 0.00 | 0.02 | 0.02 | 99 | 1008.2 |
| 20260508071845 | 35 | 236 | 0.0 | 0.0 | 0.00 | 0.02 | 0.02 | 99 | 1008.1 |
| 20260508071344 | 35 | 236 | 0.0 | 0.0 | 0.00 | 0.02 | 0.02 | 99 | 1008.2 |
| 20260508070841 | 35 | 236 | 0.0 | 0.0 | 0.00 | 0.02 | 0.02 | 99 | 1008.2 |
| 20260508070339 | 35 | 236 | 0.0 | 0.0 | 0.00 | 0.02 | 0.02 | 99 | 1008.3 |
| 20260508065836 | 35 | 236 | 0.0 | 0.0 | 0.00 | 0.02 | 0.02 | 99 | 1008.1 |
| 20260508065334 | 35 | 236 | 0.0 | 0.0 | 0.00 | 0.02 | 0.02 | 99 | 1008.1 |
| 20260508064832 | 35 | 236 | 0.0 | 0.0 | 0.00 | 0.02 | 0.02 | 99 | 1008.1 |
| 20260508064330 | 35 | 236 | 0.0 | 0.0 | 0.00 | 0.02 | 0.02 | 99 | 1007.8 |
| 20260508063827 | 35 | 236 | 0.0 | 0.0 | 0.00 | 0.02 | 0.02 | 98 | 1007.9 |
| 20260508063325 | 35 | 236 | 0.0 | 0.0 | 0.00 | 0.02 | 0.02 | 98 | 1008.1 |
| 20260508062822 | 36 | 236 | 0.0 | 0.0 | 0.00 | 0.02 | 0.02 | 98 | 1008.1 |
| 20260508062319 | 36 | 236 | 0.0 | 0.0 | 0.00 | 0.02 | 0.02 | 98 | 1008.2 |
| 20260508061816 | 36 | 237 | 0.0 | 0.0 | 0.00 | 0.02 | 0.02 | 98 | 1008.2 |
| 20260508061313 | 36 | 237 | 0.0 | 0.0 | 0.00 | 0.02 | 0.02 | 97 | 1008.4 |
| 20260508060810 | 37 | 236 | 0.0 | 0.0 | 0.00 | 0.02 | 0.02 | 97 | 1008.3 |
| 20260508060308 | 37 | 236 | 0.0 | 0.0 | 0.00 | 0.02 | 0.02 | 97 | 1008.2 |
| 20260508055802 | 38 | 236 | 0.0 | 0.0 | 0.00 | 0.02 | 0.02 | 97 | 1008.3 |
| 20260508055300 | 38 | 237 | 0.0 | 0.0 | 0.00 | 0.02 | 0.02 | 97 | 1008.2 |
| 20260508054756 | 38 | 237 | 0.0 | 0.0 | 0.00 | 0.02 | 0.02 | 96 | 1008.2 |
| 20260508054254 | 38 | 246 | 0.0 | 0.0 | 0.00 | 0.02 | 0.02 | 96 | 1008.2 |
| 20260508053751 | 38 | 205 | 0.0 | 0.0 | 0.00 | 0.02 | 0.02 | 96 | 1008.3 |
| 20260508053248 | 38 | 225 | 0.0 | 0.0 | 0.00 | 0.02 | 0.02 | 96 | 1008.4 |
| 20260508052746 | 38 | 196 | 0.0 | 0.0 | 0.00 | 0.02 | 0.02 | 95 | 1008.6 |
| 20260508052243 | 38 | 201 | 0.0 | 0.0 | 0.00 | 0.02 | 0.02 | 94 | 1008.7 |
| 20260508051738 | 38 | 209 | 0.0 | 0.0 | 0.00 | 0.02 | 0.02 | 93 | 1009.0 |
| 20260508051234 | 38 | 219 | 0.0 | 0.0 | 0.05 | 0.02 | 0.02 | 93 | 1008.9 |
| 20260508050731 | 39 | 216 | 0.0 | 0.0 | 0.00 | 0.01 | 0.01 | 93 | 1009.1 |
| 20260508050228 | 39 | 235 | 0.0 | 0.0 | 0.00 | 0.01 | 0.01 | 92 | 1009.3 |
| 20260508045723 | 39 | 219 | 0.0 | 0.0 | 0.00 | 0.01 | 0.01 | 88 | 1009.2 |
| 20260508045222 | 39 | 228 | 0.0 | 1.0 | 0.00 | 0.01 | 0.01 | 89 | 1009.1 |
| 20260508044719 | 39 | 230 | 0.0 | 0.0 | 0.00 | 0.01 | 0.01 | 93 | 1009.1 |
| 20260508044215 | 39 | 194 | 0.0 | 0.0 | 0.00 | 0.01 | 0.01 | 92 | 1008.9 |
| 20260508043711 | 39 | 222 | 0.0 | 0.0 | 0.00 | 0.01 | 0.01 | 91 | 1008.8 |
| 20260508043209 | 39 | 231 | 0.0 | 0.0 | 0.00 | 0.01 | 0.01 | 90 | 1008.9 |
| 20260508042705 | 40 | 231 | 0.0 | 0.0 | 0.00 | 0.01 | 0.01 | 87 | 1008.8 |
| 20260508042203 | 39 | 241 | 0.0 | 1.0 | 0.00 | 0.01 | 0.01 | 87 | 1008.6 |
| 20260508041659 | 39 | 226 | 0.0 | 1.0 | 0.00 | 0.01 | 0.01 | 93 | 1008.8 |
| 20260508041156 | 39 | 234 | 0.0 | 0.0 | 0.00 | 0.01 | 0.01 | 93 | 1008.3 |
| 20260508040653 | 39 | 231 | 0.0 | 0.0 | 0.00 | 0.01 | 0.01 | 93 | 1008.2 |
| 20260508040150 | 40 | 228 | 0.0 | 0.0 | 0.07 | 0.01 | 0.01 | 91 | 1008.1 |
| 20260508035647 | 40 | 227 | 0.0 | 1.0 | 0.07 | 0.01 | 0.01 | 87 | 1007.9 |
| 20260508035145 | 41 | 199 | 1.0 | 3.0 | 0.00 | 0.00 | 0.00 | 83 | 1007.9 |
| 20260508034641 | 41 | 198 | 3.0 | 7.0 | 0.00 | 0.00 | 0.00 | 82 | 1008.2 |
| 20260508034138 | 41 | 235 | 0.0 | 0.0 | 0.00 | 0.00 | 0.00 | 83 | 1008.2 |
| 20260508033636 | 42 | 215 | 0.0 | 0.0 | 0.00 | 0.00 | 0.00 | 78 | 1008.3 |
| 20260508033134 | 41 | 235 | 0.0 | 0.0 | 0.00 | 0.00 | 0.00 | 77 | 1008.4 |
| 20260508032630 | 41 | 212 | 0.0 | 0.0 | 0.00 | 0.00 | 0.00 | 74 | 1008.3 |
| 20260508032128 | 41 | 229 | 0.0 | 0.0 | 0.00 | 0.00 | 0.00 | 81 | 1007.9 |
| 20260508031625 | 41 | 229 | 0.0 | 0.0 | 0.00 | 0.00 | 0.00 | 81 | 1008.0 |
| 20260508031121 | 41 | 229 | 0.0 | 0.0 | 0.00 | 0.00 | 0.00 | 84 | 1008.1 |
| 20260508030617 | 41 | 229 | 0.0 | 0.0 | 0.00 | 0.00 | 0.00 | 84 | 1008.0 |
| 20260508030115 | 41 | 229 | 0.0 | 0.0 | 0.00 | 0.00 | 0.00 | 85 | 1008.1 |
| 20260508025611 | 41 | 230 | 0.0 | 0.0 | 0.00 | 0.00 | 0.00 | 86 | 1008.0 |
| 20260508025108 | 41 | 230 | 0.0 | 0.0 | 0.00 | 0.00 | 0.00 | 86 | 1008.0 |
| 20260508024604 | 40 | 223 | 0.0 | 0.0 | 0.00 | 0.00 | 0.00 | 83 | 1007.9 |
| 20260508024102 | 40 | 223 | 0.0 | 0.0 | 0.00 | 0.00 | 0.00 | 86 | 1007.8 |
| 20260508023558 | 40 | 223 | 0.0 | 0.0 | 0.00 | 0.00 | 0.00 | 86 | 1008.0 |
| 20260508023055 | 40 | 223 | 0.0 | 0.0 | 0.00 | 0.00 | 0.00 | 86 | 1008.1 |
| 20260508022551 | 40 | 223 | 0.0 | 0.0 | 0.00 | 0.00 | 0.00 | 86 | 1008.0 |
| 20260508022048 | 40 | 223 | 0.0 | 0.0 | 0.00 | 0.00 | 0.00 | 86 | 1008.1 |
| 20260508021544 | 40 | 224 | 0.0 | 0.0 | 0.00 | 0.00 | 0.00 | 86 | 1008.0 |
| 20260508021040 | 40 | 223 | 0.0 | 0.0 | 0.00 | 0.00 | 0.00 | 84 | 1008.1 |
| 20260508020537 | 40 | 223 | 0.0 | 0.0 | 0.00 | 0.00 | 0.00 | 86 | 1007.9 |
| 20260508020035 | 40 | 223 | 0.0 | 0.0 | 0.00 | 0.00 | 0.00 | 85 | 1007.9 |
| 20260508015532 | 40 | 223 | 0.0 | 0.0 | 0.00 | 0.00 | 0.00 | 86 | 1008.0 |
| 20260508015030 | 40 | 223 | 0.0 | 0.0 | 0.00 | 0.00 | 0.00 | 86 | 1007.8 |
| 20260508014526 | 40 | 223 | 0.0 | 0.0 | 0.00 | 0.00 | 0.00 | 85 | 1007.7 |
| 20260508014022 | 39 | 223 | 0.0 | 0.0 | 0.00 | 0.00 | 0.00 | 84 | 1008.0 |
| 20260508013518 | 39 | 223 | 0.0 | 0.0 | 0.00 | 0.00 | 0.00 | 84 | 1007.9 |
| 20260508013016 | 39 | 223 | 0.0 | 0.0 | 0.00 | 0.00 | 0.00 | 84 | 1007.8 |
| 20260508012513 | 39 | 223 | 0.0 | 0.0 | 0.00 | 0.00 | 0.00 | 82 | 1007.8 |
| 20260508012010 | 39 | 233 | 0.0 | 0.0 | 0.00 | 0.00 | 0.00 | 87 | 1007.7 |
| 20260508011508 | 39 | 233 | 0.0 | 0.0 | 0.00 | 0.00 | 0.00 | 85 | 1007.8 |
| 20260508011005 | 39 | 233 | 0.0 | 0.0 | 0.00 | 0.00 | 0.00 | 82 | 1007.9 |
| 20260508010502 | 39 | 233 | 0.0 | 0.0 | 0.00 | 0.00 | 0.00 | 83 | 1007.9 |
| 20260508005959 | 39 | 234 | 0.0 | 0.0 | 0.00 | 0.00 | 0.00 | 82 | 1007.8 |
| 20260508005456 | 39 | 234 | 0.0 | 0.0 | 0.00 | 0.00 | 0.00 | 81 | 1007.6 |
| 20260508004953 | 40 | 234 | 0.0 | 0.0 | 0.00 | 0.00 | 0.00 | 79 | 1007.6 |
| 20260508004448 | 40 | 234 | 0.0 | 0.0 | 0.00 | 0.00 | 0.00 | 78 | 1007.6 |
| 20260508003945 | 40 | 234 | 0.0 | 0.0 | 0.00 | 0.00 | 0.00 | 78 | 1007.5 |